Погода в Гардоне-Ривьере

Италия     45°37′17″N   10°34′04″E
темп.,
°C
ветер,
м/с
пор.,
м/с
влажн.,
%
обл.,
%
осадки,
мм/ч
давл.,
гПа
погр.,
м
22 января, сб
сб2201:00+3ссв335278 0.0 1028191
04:00+3ссв33510 0.0 1027192
07:00+2зсз23551 0.0 1026138
10:00+4зсз23403 0.0 1025195
13:00+7зюз44380 0.0 1025413
16:00+6з34460 0.0 1024140
19:00+4сз11515 0.0 102638
22:00+3вюв23577 0.0 102992
23 января, вс
вс2301:00+2всв016238 0.0 103063
04:00+2св016598 0.0 103058
07:00+2з1165100 0.0 103057
10:00+4юз1160100 0.0 1031117
13:00+6юз22530 0.0 1030377
16:00+6юз22580 0.0 1029172
19:00+3зсз12680 0.0 102951
22:00+3сз11710 0.0 102945
24 января, пн
пн2401:00+3зсз01740 0.0 102962
04:00+3св01760 0.0 103070
07:00+2ююз01780 0.0 103061
10:00+4вюв12680 0.0 1032198
13:00+6вюв33602 0.0 1032554
16:00+6вюв246727 0.0 1032451
19:00+5вюв1275100 0.0 1034139
22:00+5вюв1180100 0.1 1035136
25 января, вт
вт2501:00+4юз0181100 0.1 1035118
04:00+4з118098 0.0 1034110
07:00+3зсз12807 0.0 103373
10:00+4з11705 0.0 1033190
13:00+6юз116215 0.0 1032690
16:00+6вюв116570 0.0 1032511
19:00+4ссз117319 0.0 1032131
22:00+4ссз11778 0.0 1032132
26 января, ср
ср2601:00+3сз1180100 0.0 103258
04:00+3з1182100 0.0 103162
07:00+2зсз1183100 0.0 103154
10:00+4ююз0079100 0.0 1031136
13:00+6ююв1172100 0.0 1030336
16:00+6юв10718 0.0 1028183
19:00+4с11805 0.0 1029100
22:00+4сз118176 0.0 102986